sat.trackr.live / text

‹ back to catalog

PISAT

NORAD 41784 · 2016-059B

PAYLOAD ACTIVE UNKNOWN

§ Identity

Operator
Country
IND
Launch date
2016-09-26
Launch site
SRILR
Launch vehicle
Mass (kg)
RCS (m²)
0.15

Purposes: science, tech_demo

External: N2YO · Heavens-Above · Gunter

§ Orbital elements

Epoch: 2026-09-15T19:13:33.814848Z

Period
98.02 min
Inclination
97.8248°
Eccentricity
0.0027467
Mean motion
14.69125994 rev/d
Perigee alt
644.5 km
Apogee alt
683.2 km
Semi-major
7,042.0 km
B*
1.2423e-4
RAAN
255.3965°
Arg perigee
276.5298°
Mean anomaly
83.2781°
Rev number
53,304

§ Raw data

PISAT1 41784U 16059B   26258.80108582  .00000687  00000+0  12423-3 0  99952 41784  97.8248 255.3965 0027467 276.5298  83.2781 14.69125994533048

JSON: /api/v1/satellites/41784 · /tle

For live sub-satellite position, see the globe view (requires WebGL).

§ Visibility from observer

Set your observer location to see the next 7 days of passes ≥ 10°. The values pass through the URL so the page stays shareable.

No JS? Fill the form by hand. The geolocation button needs JavaScript.